This is the latest recevied weather packets stored in our database for station/object N5ZP. If no packets are shown the sender has not sent any weather packets the latest 1 day(s).
| Time | Temp. | Humidity | Pressure | Rain* | Wind** | Luminosity | Snow |
|---|---|---|---|---|---|---|---|
| 1778101080 | 18.89° C | 66% | 1011.1 hPa | 0 mm | - | 306 W/m² | - |
| 1778100170 | 18.33° C | 66% | 1011.1 hPa | 0 mm | - | 386 W/m² | - |
| 1778099868 | 18.33° C | 66% | 1011.1 hPa | 0 mm | - | 386 W/m² | - |
| 1778099565 | 18.33° C | 66% | 1011.1 hPa | 0 mm | - | 276 W/m² | - |
| 1778098352 | 18.33° C | 68% | 1011.3 hPa | 0 mm | - | 330 W/m² | - |
| 1778097746 | 18.33° C | 65% | 1011.4 hPa | 0 mm | - | 444 W/m² | - |
| 1778097442 | 18.33° C | 65% | 1011.7 hPa | 0 mm | - | 302 W/m² | - |
| 1778095921 | 18.89° C | 63% | 1011.8 hPa | 0 mm | - | 391 W/m² | - |
| 1778094707 | 17.78° C | 67% | 1012 hPa | 0 mm | - | 661 W/m² | - |
| 1778094101 | 16.67° C | 67% | 1012.1 hPa | 0 mm | - | 444 W/m² | - |
| 1778093192 | 16.67° C | 68% | 1011.5 hPa | 0 mm | - | 390 W/m² | - |
| 1778091676 | 16.11° C | 69% | 1011.4 hPa | 0 mm | - | 528 W/m² | - |
| 1778091071 | 15.56° C | 74% | 1011.4 hPa | 0 mm | - | 333 W/m² | - |
| 1778090768 | 15° C | 75% | 1011.7 hPa | 0 mm | - | 553 W/m² | - |
| 1778089251 | 13.89° C | 76% | 1012.4 hPa | 0 mm | - | 355 W/m² | - |
| 1778088646 | 13.33° C | 77% | 1011.9 hPa | 0 mm | - | 410 W/m² | - |
| 1778085618 | 12.22° C | 85% | 1012.1 hPa | 0 mm | - | 94 W/m² | - |
| 1778084101 | 11.67° C | 87% | 1011.7 hPa | 0 mm | - | 97 W/m² | - |
| 1778083798 | 11.67° C | 87% | 1011.8 hPa | 0 mm | - | 108 W/m² | - |
| 1778083495 | 11.67° C | 87% | 1011.6 hPa | 0 mm | - | 127 W/m² | - |
| 1778081474 | 11.67° C | 91% | 1012.3 hPa | 0 mm | - | 89 W/m² | - |
| 1778081171 | 11.67° C | 92% | 1012 hPa | 0 mm | - | 138 W/m² | - |
| 1778080869 | 11.11° C | 92% | 1011.7 hPa | 1.27 mm | - | 221 W/m² | - |
| 1778079960 | 10.56° C | 91% | 1013.2 hPa | 3.05 mm | - | 51 W/m² | - |
| 1778079657 | 10.56° C | 90% | 1013.6 hPa | 3.05 mm | - | 38 W/m² | - |
* Rain latest hour (hover to see other rain measurements)
** Current wind speed in m/s (hover to see current wind gust speed)